Location: ???????
(55.4362°N, 38.1183°E)
Time: 12:59:58
(UTC+00:00)

deb Delta 139 - Pass Details

Date: 29 January 2022
Orbit: 790 x 1093 km, 98.7° (Epoch: 23 May)

Event Time Altitude Azimuth Distance (km) Brightness Sun altitude
Rises 15:32:15 0° 195° (SSW) 3,332 ? -13.4°
Reaches altitude 10° 15:34:47 10° 205° (SSW) 2,435 ? -13.8°
Maximum altitude 15:39:33 32° 268° (W) 1,462 ? -14.4°
Drops below altitude 10° 15:44:39 10° 330° (NNW) 2,606 ? -15.1°
Sets 15:47:28 0° 340° (NNW) 3,604 ? -15.5°
